COSMOS 2058

Last updated on Thu Dec 18 2025 00:02:15 GMT+0000 (Coordinated Universal Time)

1 20465U 90010A 25351.66009234 .00004424 00000+0 26665-3 0 9994 2 20465 82.4682 128.1903 0008687 252.8071 107.2208 15.10518777929852
UTC large
Height (km)
Speed (km/s)
/
Latitude / Longitude
Inclination (degrees)
Orbital Period (minutes)
Azimuth
Elevation
Range (km)
Doppler Factor

Next 0 passes for location: London (51.5072 / 0.1276)

Sorry there are no passes over London.